FALCON 1 R/B

基本信息
目录编号:
35579
目录名称:
FALCON 1 R/B
国际标识:
2009-037B
轨道中心:
EARTH
物体状态:
在轨
发射日期:
2009-07-14 UTC
国别:
美国 (US)
轨道信息
数据来源: 国际轨道数据
星历时间: 2026-07-13T19:04:00+0800
半长轴: 6978.346km
偏心率: 0.0036985
轨道倾角: 9.045°
近地点辐角: 166.919°
升交点赤经: 302.499°
平近点角: 193.197°
近地点: 574.399km
远地点: 626.019km
周期: 96.692分钟
每日圈数: 14.892721
详细信息
发射场:
KWAJL
轨道高度:
LEO
数据来源:
AOE Integration Group
参考系:
TEME
时间系统:
UTC
历元类型:
SGP4
2D轨道图
3D轨道图
轨道高度分析图
轨道倾角分析图
轨道综合分析图
查看轨道综合分析图